Location: Astronomy Club of Akron Observatory
(40.9700°N, 81.5606°W)
Time: 22:28:00
(UTC-04:00)

ATLAS 2AS CENTAUR R/B - Visible Passes

Search period start: 27 March 2017 00:00
Search period end: 06 April 2017 00:00
Orbit: 909 x 1303 km, 63.7° (Epoch: 19 March)

Date Brightness Start Highest point End Pass type
(mag) Time Alt. Az. Time Alt. Az. Time Alt. Az.
27 Mar 5.6 06:13:54 10° SE 06:17:31 14° ESE 06:21:13 10° ENE visible
29 Mar 4.9 06:31:33 10° SSE 06:37:59 32° ESE 06:44:46 10° NE visible
30 Mar 5.3 05:48:35 10° SSE 05:53:39 20° ESE 05:58:55 10° ENE visible
31 Mar 5.7 05:07:50 10° ESE 05:09:28 11° E 05:11:07 10° E visible
01 Apr 4.3 06:07:20 10° S 06:14:15 41° ESE 06:21:38 10° NE visible
02 Apr 4.9 05:23:52 10° SSE 05:29:50 26° ESE 05:36:07 10° NE visible
03 Apr 5.2 04:41:25 10° SE 04:45:34 16° ESE 04:49:51 10° ENE visible
03 Apr 3.3 06:27:42 10° SSW 06:35:17 79° ESE 06:43:23 10° NE visible
04 Apr 3.7 05:43:19 10° S 05:50:36 53° ESE 05:58:22 10° NE visible
05 Apr 4.3 04:59:28 10° S 05:06:05 34° ESE 05:13:05 10° NE visible
